Weather History for Imperial, CA

Change the Weather History Date:

Saturday, July 6, 2013

  Actual Average Record
Temperature  
Mean Temperature 94 °F -  
Max Temperature 107 °F 105 °F 115 °F (1966)
Min Temperature 81 °F 76 °F 64 °F (2000)
Cooling Degree Days 29    
Growing Degree Days 44 (Base 50)    
Moisture  
Dew Point 60 °F    
Average Humidity 34    
Maximum Humidity 49    
Minimum Humidity 18    
Precipitation  
Precipitation 0.00 in - - ()
Sea Level Pressure  
Sea Level Pressure 29.62 in    
Wind  
Wind Speed 5 mph (ESE)    
Max Wind Speed 9 mph    
Max Gust Speed -    
Visibility 10 miles    
Events      
Averages and records for this station are not official NWS values.
T = Trace of Precipitation, MM = Missing Value Source: NWS Daily Summary

Daily Weather History Graph

Daily Weather History Graph

Search for Another Location

Airport:

Trip Planner

Search our weather history database for the weather conditions in past years. The results will help you decide how hot, cold, wet, or windy it might be!

Date:

Astronomy

Jul. 06, 2013 Rise Set
Actual Time 5:40 AM PDT 7:53 PM PDT
Civil Twilight 5:11 AM PDT 8:22 PM PDT
Nautical Twilight 4:37 AM PDT 8:56 PM PDT
Astronomical Twilight 3:59 AM PDT 9:34 PM PDT
Moon 4:26 AM PDT (7/6) 6:41 PM PDT (7/6)
Length of Visible Light 15h 10m
Length of Day
14h 13m
Waning Crescent, 2% of the Moon is Illuminated
Jul 6
Waning Crescent
Jul 8
New
Jul 15
First Quarter
Jul 22
Full
Jul 29
Last Quarter

Hourly Weather History & Observations

Time (PDT) Temp. Heat Index Dew Point Humidity Pressure Visibility Wind Dir Wind Speed Gust Speed Precip Events Conditions
12:53 AM 84.9 °F 85.4 °F 62.1 °F 46% 29.63 in 10.0 mi SE 9.2 mph - N/A   Clear
1:53 AM 82.9 °F 83.7 °F 62.1 °F 49% 29.63 in 10.0 mi ESE 5.8 mph - N/A   Clear
2:53 AM 82.0 °F 82.7 °F 61.0 °F 49% 29.62 in 10.0 mi ENE 5.8 mph - N/A   Clear
3:53 AM 82.0 °F 81.7 °F 57.0 °F 42% 29.63 in 10.0 mi ESE 3.5 mph - N/A   Clear
4:53 AM 82.0 °F 81.4 °F 55.0 °F 39% 29.65 in 10.0 mi Calm Calm - N/A   Clear
5:53 AM 81.0 °F 80.8 °F 55.9 °F 42% 29.66 in 10.0 mi Calm Calm - N/A   Clear
6:53 AM 81.0 °F 81.0 °F 57.0 °F 44% 29.68 in 10.0 mi Calm Calm - N/A   Clear
7:53 AM 82.9 °F 83.2 °F 60.1 °F 46% 29.68 in 10.0 mi Calm Calm - N/A   Clear
8:53 AM 87.1 °F 87.8 °F 63.0 °F 44% 29.69 in 10.0 mi ENE 4.6 mph - N/A   Clear
9:53 AM 90.0 °F 91.7 °F 64.9 °F 43% 29.70 in 10.0 mi ENE 6.9 mph - N/A   Clear
10:53 AM 93.9 °F 97.0 °F 66.0 °F 40% 29.68 in 10.0 mi ENE 9.2 mph - N/A   Clear
11:53 AM 97.0 °F 99.3 °F 64.0 °F 34% 29.68 in 10.0 mi SE 8.1 mph - N/A   Clear
12:53 PM 100.9 °F 103.3 °F 63.0 °F 29% 29.65 in 10.0 mi SE 6.9 mph - N/A   Clear
1:53 PM 102.9 °F 105.5 °F 63.0 °F 27% 29.62 in 10.0 mi ENE 5.8 mph - N/A   Clear
2:53 PM 105.1 °F 107.8 °F 62.1 °F 25% 29.60 in 10.0 mi SE 3.5 mph - N/A   Clear
3:53 PM 107.1 °F 108.9 °F 61.0 °F 22% 29.57 in 10.0 mi ENE 8.1 mph - N/A   Clear
4:53 PM 105.1 °F 107.8 °F 63.0 °F 25% 29.55 in 10.0 mi SW 5.8 mph - N/A   Clear
5:53 PM 104.0 °F 107.4 °F 64.0 °F 27% 29.54 in 10.0 mi West 4.6 mph - N/A   Partly Cloudy
6:53 PM 105.1 °F 103.8 °F 55.0 °F 19% 29.55 in 10.0 mi ESE 9.2 mph - N/A   Partly Cloudy
7:53 PM 102.0 °F - 51.1 °F 18% 29.56 in 10.0 mi ESE 9.2 mph - N/A   Partly Cloudy
8:53 PM 98.1 °F - 50.0 °F 20% 29.58 in 10.0 mi SE 5.8 mph - N/A   Clear
9:53 PM 91.9 °F 91.5 °F 60.1 °F 34% 29.60 in 10.0 mi SW 5.8 mph - N/A   Clear
10:53 PM 91.0 °F 90.2 °F 59.0 °F 34% 29.61 in 10.0 mi SW 5.8 mph - N/A   Clear
11:53 PM 91.0 °F 88.7 °F 54.0 °F 28% 29.60 in 10.0 mi Calm Calm - N/A   Clear